Le nostre stazioni meteo in Italia

Pubblicità
Il mio iltempo24.it
Brindisi, Italia (16320): Temperatura & dewpoint: 16.11.2019 08:00:00 - 22.11.2019 08:00:00 (CET)Brindisi, Italia (16320): velocità del vento: 16.11.2019 08:00:00 - 22.11.2019 08:00:00 (CET)Brindisi, Italia (16320): direzione del vento: 16.11.2019 08:00:00 - 22.11.2019 08:00:00 (CET)Brindisi, Italia (16320): reduced air pressure: 16.11.2019 08:00:00 - 22.11.2019 08:00:00 (CET)Brindisi, Italia (16320): visibility: 16.11.2019 08:00:00 - 22.11.2019 08:00:00 (CET)Brindisi, Italia (16320): precipitazioni: 16.11.2019 08:00:00 - 22.11.2019 08:00:00 (CET)
Data & Tempo tt [°C] td [°C] ff [km/h] ff [kn] dd ppp [hPa] vv [km] rr [mm]
22.11.2019 08:00:00 10,0 8,0 8 4 SO - 10 -
22.11.2019 07:00:00 8,3 7,2 11 6 SO 1015,1 10 -
22.11.2019 06:00:00 9,0 8,0 9 5 SO - 10 -
22.11.2019 05:00:00 8,0 7,0 9 5 OSO - 10 -
22.11.2019 04:00:00 8,3 7,3 8 4 SO 1014,5 10 0,0
22.11.2019 03:00:00 9,0 8,0 8 4 SO - 10 -
22.11.2019 02:00:00 8,0 7,0 8 4 SO - 10 -
22.11.2019 01:00:00 9,2 8,2 4 2 SSO 1014,8 10 -
22.11.2019 00:00:00 - - - - - - - -
21.11.2019 23:00:00 10,0 9,0 8 4 SO - 10 -
21.11.2019 22:00:00 10,3 9,1 9 5 SO 1014,9 10 0,0
21.11.2019 21:00:00 12,0 10,0 2 1 - - 10 -
21.11.2019 20:00:00 12,0 11,0 9 5 SO - 10 -
21.11.2019 19:00:00 13,0 10,9 4 2 S 1014,2 10 -
21.11.2019 18:00:00 14,0 11,0 4 2 SSO - 10 -
21.11.2019 17:00:00 16,0 11,0 5 3 SE - 10 -
21.11.2019 16:00:00 16,3 11,3 8 4 SE 1013,9 10 0,0
21.11.2019 15:00:00 17,0 12,0 9 5 E - 10 -
21.11.2019 14:00:00 17,0 11,0 9 5 E - 10 -
21.11.2019 13:00:00 17,0 11,6 9 5 E 1014,0 10 -
21.11.2019 12:00:00 17,0 11,0 8 4 NE - 10 -
21.11.2019 11:00:00 17,0 11,0 5 3 NE - 10 -
21.11.2019 10:00:00 17,3 10,7 2 1 - 1015,5 10 0,0
21.11.2019 09:00:00 14,0 11,0 5 3 SO - 10 -
21.11.2019 08:00:00 - - - - - - - -
21.11.2019 07:00:00 9,6 7,6 9 5 OSO 1014,9 10 -
21.11.2019 06:00:00 - - - - - - - -
21.11.2019 05:00:00 - - - - - - - -
21.11.2019 04:00:00 9,6 7,6 9 5 OSO 1014,8 - 0,0
21.11.2019 03:00:00 - - - - - - - -
21.11.2019 02:00:00 - - - - - - - -
21.11.2019 01:00:00 10,3 8,9 8 4 SSO 1015,3 - -
21.11.2019 00:00:00 - - - - - - - -
20.11.2019 23:00:00 12,0 10,0 8 4 SSO - 10 -
20.11.2019 22:00:00 13,4 10,5 11 6 S 1015,3 10 0,0
20.11.2019 21:00:00 13,0 11,0 13 7 SSE - 10 -
20.11.2019 20:00:00 14,0 11,0 13 7 S - 10 -
20.11.2019 19:00:00 14,5 10,9 11 6 S 1014,7 10 -
20.11.2019 18:00:00 14,0 11,0 8 4 S - 10 -
20.11.2019 17:00:00 16,0 10,0 9 5 S - 10 -
20.11.2019 16:00:00 17,2 9,9 11 6 S 1014,3 10 0,0
20.11.2019 15:00:00 18,0 9,0 16 9 SO - 10 -
20.11.2019 14:00:00 18,0 10,0 21 11 SO - 10 -
20.11.2019 13:00:00 18,5 10,2 22 12 S 1014,0 10 -
20.11.2019 12:00:00 18,0 10,0 18 10 S - 10 -
20.11.2019 11:00:00 18,0 12,0 15 8 S - 10 -
20.11.2019 10:00:00 16,5 10,7 13 7 S 1014,4 10 0,0
20.11.2019 09:00:00 14,0 11,0 8 4 SSO - 10 -
20.11.2019 08:00:00 12,0 11,0 9 5 S - 10 -
20.11.2019 07:00:00 12,0 10,2 9 5 S 1012,8 10 -
20.11.2019 06:00:00 12,0 11,0 11 6 S - 10 -
20.11.2019 05:00:00 13,0 12,0 13 7 SSE - 10 -
20.11.2019 04:00:00 12,7 11,2 15 8 SSE 1011,7 10 0,0
20.11.2019 03:00:00 13,0 11,0 13 7 SSE - 10 -
20.11.2019 02:00:00 14,0 12,0 13 7 ESE - 10 -
20.11.2019 01:00:00 13,9 11,8 21 11 SE 1012,3 10 -
20.11.2019 00:00:00 15,0 14,0 24 13 SE - 10 -
19.11.2019 23:00:00 14,0 13,0 9 5 SE - 8 -
19.11.2019 22:00:00 14,4 13,2 8 4 SSE 1013,9 10 0,0
19.11.2019 21:00:00 14,0 13,0 5 3 SE - 10 -
19.11.2019 20:00:00 15,0 14,0 5 3 ESE - 10 -
19.11.2019 19:00:00 14,7 13,2 4 2 E 1014,6 10 -
19.11.2019 18:00:00 15,0 13,0 5 3 O - 7 -
19.11.2019 17:00:00 17,0 15,0 18 10 SE - 7 -
19.11.2019 16:00:00 18,0 15,0 9 5 E - 10 -
19.11.2019 15:00:00 18,0 14,0 11 6 E - 10 -
19.11.2019 14:00:00 17,0 15,0 13 7 E - 10 -
19.11.2019 13:00:00 17,4 14,6 15 8 E 1016,9 10 -
19.11.2019 12:00:00 18,0 12,0 11 6 E - 10 -
19.11.2019 11:00:00 18,0 13,0 11 6 E - 10 -
19.11.2019 10:00:00 17,0 11,7 8 4 ESE 1018,9 10 0,0
19.11.2019 09:00:00 15,0 10,0 5 3 ESE - 10 -
19.11.2019 08:00:00 13,0 10,0 8 4 SE - 10 -
19.11.2019 07:00:00 12,1 9,6 9 5 SSE 1019,0 10 -
19.11.2019 06:00:00 13,0 10,0 5 3 SSE - 10 -
19.11.2019 05:00:00 14,0 11,0 8 4 SE - 10 -
19.11.2019 04:00:00 13,0 10,3 11 6 SSE 1019,0 10 0,0
19.11.2019 03:00:00 13,0 11,0 9 5 SSE - 10 -
19.11.2019 02:00:00 13,0 11,0 9 5 SSE - 10 -
19.11.2019 01:00:00 14,1 11,1 9 5 SSE 1019,4 10 -
19.11.2019 00:00:00 13,0 9,0 9 5 SSE - 10 -
18.11.2019 23:00:00 13,0 10,0 9 5 SSE - 10 -
18.11.2019 22:00:00 13,0 9,5 11 6 SSE 1019,5 10 0,0
18.11.2019 21:00:00 13,0 9,0 8 4 SE - 10 -
18.11.2019 20:00:00 14,0 9,0 9 5 SSE - 10 -
18.11.2019 19:00:00 14,7 10,4 11 6 SSE 1019,4 10 -
18.11.2019 18:00:00 16,0 11,0 11 6 SE - 10 -
18.11.2019 17:00:00 16,0 11,0 9 5 SE - 10 -
18.11.2019 16:00:00 16,5 9,8 11 6 E 1018,5 10 0,0
18.11.2019 15:00:00 17,0 10,0 13 7 E - 10 -
18.11.2019 14:00:00 18,0 8,0 11 6 E - 10 -
18.11.2019 13:00:00 17,8 6,4 11 6 NE 1018,2 10 -
18.11.2019 12:00:00 18,0 7,0 9 5 - - 10 -
18.11.2019 11:00:00 18,0 8,0 11 6 OSO - 10 -
18.11.2019 10:00:00 16,8 8,5 13 7 OSO 1018,2 10 0,0
18.11.2019 09:00:00 13,0 10,0 11 6 SO - 10 -
18.11.2019 08:00:00 11,0 9,0 9 5 SO - 10 -
18.11.2019 07:00:00 10,0 8,3 11 6 OSO 1016,0 10 -
18.11.2019 06:00:00 10,0 9,0 15 8 SO - 10 -
18.11.2019 05:00:00 11,0 9,0 11 6 SO - 10 -
18.11.2019 04:00:00 12,0 11,0 9 5 S - 10 -
18.11.2019 03:00:00 12,0 11,0 5 3 S - 10 -
18.11.2019 02:00:00 13,0 12,0 11 6 O - 10 -
18.11.2019 01:00:00 14,0 12,2 9 5 S 1012,4 10 -
18.11.2019 00:00:00 14,0 13,0 9 5 SSO - 10 -
17.11.2019 23:00:00 14,0 13,0 8 4 S - 10 -
17.11.2019 22:00:00 14,5 13,5 8 4 S 1011,0 10 0,0
17.11.2019 21:00:00 14,0 13,0 8 4 S - 10 -
17.11.2019 20:00:00 14,0 13,0 9 5 S - 10 -
17.11.2019 19:00:00 14,4 12,7 16 9 SO 1011,0 20 -
17.11.2019 18:00:00 18,0 16,0 24 13 SE - 10 -
17.11.2019 17:00:00 18,0 16,0 22 12 ESE - 10 -
17.11.2019 16:00:00 18,7 15,5 16 9 ESE 1010,2 10 0,0
17.11.2019 15:00:00 21,0 12,0 31 17 S - 10 -
17.11.2019 14:00:00 22,0 14,0 28 15 S - 10 -
17.11.2019 13:00:00 19,3 16,1 24 13 SE 1009,9 10 -
17.11.2019 12:00:00 20,0 14,0 26 14 SSE - 10 -
17.11.2019 11:00:00 20,0 15,0 28 15 SSE - 10 -
17.11.2019 10:00:00 19,9 15,0 22 12 SSE 1012,1 10 0,0
17.11.2019 09:00:00 19,0 16,0 18 10 SSE - 10 -
17.11.2019 08:00:00 18,0 16,0 22 12 SSE - 10 -
17.11.2019 07:00:00 17,1 14,7 24 13 SSE 1012,3 10 -
17.11.2019 06:00:00 17,0 15,0 9 5 SE - 10 -
17.11.2019 05:00:00 18,0 15,0 15 8 SSE - 10 -
17.11.2019 04:00:00 17,1 14,5 15 8 SSE 1012,9 10 0,0
17.11.2019 03:00:00 - - - - - - - -
17.11.2019 02:00:00 18,0 14,0 18 10 SE - 10 -
17.11.2019 01:00:00 17,3 14,7 18 10 SE 1013,9 10 -
17.11.2019 00:00:00 18,0 14,0 16 9 SSE - 10 -
16.11.2019 23:00:00 17,0 15,0 21 11 SE - 10 -
16.11.2019 22:00:00 17,2 14,6 18 10 SSE 1014,7 10 0,0
16.11.2019 21:00:00 17,0 14,0 13 7 SSE - 10 -
16.11.2019 20:00:00 18,0 14,0 15 8 SE - 10 -
16.11.2019 19:00:00 17,8 14,5 18 10 SSE 1014,6 10 -
16.11.2019 18:00:00 19,0 15,0 22 12 SSE - 10 -
16.11.2019 17:00:00 19,0 14,0 24 13 SSE - 10 -
16.11.2019 16:00:00 20,0 13,9 28 15 SSE 1014,4 10 0,0
16.11.2019 15:00:00 20,0 14,0 24 13 S - 10 -
16.11.2019 14:00:00 21,0 13,0 24 13 S - 10 -
16.11.2019 13:00:00 21,0 11,9 24 13 S 1015,3 10 -
16.11.2019 12:00:00 21,0 12,0 28 15 S - 10 -
16.11.2019 11:00:00 21,0 14,0 28 15 S - 10 -
16.11.2019 10:00:00 20,1 15,0 18 10 SSE 1017,1 10 0,0
16.11.2019 09:00:00 19,0 15,0 21 11 SSE - 10 -
16.11.2019 08:00:00 17,0 15,0 22 12 SSE - 10 -

tt = Temperatura
td = dewpoint
ff = velocità del vento
dd = direzione del vento
ppp = reduced air pressure
vv = visibility
rr = precipitazioni

Stazioni seguenti

WeatherPro
AMSI
MeteoEarth